TJS-12

Last updated on Thu Oct 30 2025 00:02:52 GMT+0000 (Coordinated Universal Time)

1 62374U 24246A 25302.24435054 -.00000222 00000+0 00000+0 0 9994 2 62374 1.2212 287.4352 0001254 228.1714 116.7683 1.00270771 3246
UTC large
Height (km)
Speed (km/s)
/
Latitude / Longitude
Inclination (degrees)
Orbital Period (minutes)
Azimuth
Elevation
Range (km)
Doppler Factor

Next 0 passes for location: London (51.5072 / 0.1276)

Sorry there are no passes over London.